User: anonymous   Login
Location: Krasnoyarskiy Pitomnik
(51.1333°N, 71.6167°E)
Time: 21:50:47
(UTC+00:00)
Language:

Explorer 11/Cluster Stage 4 - Orbit

View from above orbital plane
View from above orbital plane
View from above satellite
View from above satellite

Ground track
Ground track

The orbit data is extracted from the following two-line orbital elements,

1   107U 61013A   24102.60792101  .00003646  00000-0  45113-3 0  9990
2   107  28.7901 206.9681 0522957 285.2714  69.0651 14.14887098162802
Epoch (UTC): 11 April 2024 14:35:24
Eccentricity: 0.0522957
inclination: 28.7901°
perigee height: 465 km
apogee height: 1220 km
right ascension of ascending node: 206.9681°
argument of perigee: 285.2714°
revolutions per day: 14.14887098
mean anomaly at epoch: 69.0651°
orbit number at epoch: 16280

The dashed part of the orbit path shows where the satellite is in the earth's shadow,  

DLR